Temperature
22 22 22 21 21 21 21 20 20 20 20 20 19 19 19 19 19 19 19 19 19 19 19 18 18 18 18 18 19 19 19 19 19 19 19 19 19 18 18 18 18 18 18
22 23 22 21 21 21 20 20 20 20 20 19 19 19 19 19 19 19 19 19 19 19 19 18 18 18 18 19 19 19 19 19 19 19 18 18 18 18 18 18 18 18 18
22 22 22 21 21 20 20 20 20 20 20 19 19 19 19 19 19 19 19 19 19 19 19 19 19 19 19 19 19 19 19 18 18 18 18 18 18 18 18 18 18 18 18
22 22 22 21 21 20 20 20 20 20 19 19 19 19 19 19 19 19 19 19 19 19 19 19 19 19 19 19 19 19 19 18 18 18 17 17 18 18 18 18 18 18 18
21 21 22 21 21 20 20 20 20 19 19 19 19 19 19 19 19 19 19 19 19 19 19 19 19 19 19 19 19 19 19 18 18 18 18 18 18 18 18 18 18 18 18
20 21 21 21 20 20 20 19 19 19 19 19 19 19 19 19 19 19 19 19 19 18 18 18 18 18 19 19 19 19 19 18 18 18 18 18 18 18 18 18 18 18 18
21 21 21 21 20 20 20 19 19 19 19 19 19 19 19 19 19 19 19 19 18 18 18 18 18 18 18 19 19 19 19 18 18 18 18 18 18 18 18 18 18 18 18
21 21 21 21 20 20 19 19 19 19 19 19 19 19 19 19 19 19 19 19 18 18 18 18 18 18 18 19 19 19 19 19 18 18 18 18 18 19 18 18 18 18 18
21 21 21 20 20 20 19 19 19 19 19 19 19 19 19 19 19 19 19 19 18 18 18 18 18 18 18 18 19 19 19 19 19 18 18 18 18 19 19 18 18 18 18
21 20 20 19 20 19 19 19 19 19 19 19 19 19 19 19 19 19 18 18 18 18 18 18 18 18 18 18 19 19 19 19 19 19 18 18 18 19 19 18 18 18 18
21 21 20 19 19 19 19 19 19 19 19 19 18 18 19 18 18 18 18 18 18 18 18 18 18 18 18 18 18 19 19 19 19 19 19 19 19 19 19 19 18 18 18
21 20 20 19 19 19 19 18 18 18 18 18 18 18 18 18 18 18 18 18 18 18 18 18 18 18 18 18 18 18 19 19 19 19 19 19 19 19 19 19 19 18 18
20 20 20 19 19 19 19 18 18 18 18 18 18 18 18 18 18 18 18 18 18 18 18 18 18 18 18 18 18 18 18 18 18 19 19 19 19 19 19 19 19 18 18
20 20 19 19 19 19 19 19 18 18 18 18 18 18 18 18 17 17 17 17 17 17 17 18 18 17 17 17 18 18 18 18 18 19 19 19 18 19 19 19 18 18 18
20 19 19 19 19 19 19 18 18 18 18 18 17 17 17 17 17 17 17 17 17 17 17 17 17 17 17 17 17 17 18 18 18 18 18 18 18 18 19 19 18 18 18
19 19 19 19 19 19 18 18 18 18 18 17 17 16 16 16 16 16 16 16 17 16 16 17 17 17 17 17 17 17 17 17 17 18 18 18 18 18 18 18 18 18 18
19 19 18 18 18 18 18 18 18 17 17 17 16 16 16 16 16 16 16 16 16 16 16 16 16 16 16 16 17 17 17 17 17 17 17 17 17 17 18 18 18 18 18
18 18 18 18 18 18 18 18 17 17 17 16 16 15 15 15 15 15 15 15 15 15 15 16 16 16 16 16 16 16 16 17 17 17 17 17 17 17 17 18 18 18 18
18 18 18 18 18 18 18 17 17 17 16 16 16 15 15 14 14 14 14 14 15 15 15 15 15 15 15 15 16 16 16 16 16 17 17 17 17 17 17 17 17 17 18
18 18 18 18 18 18 17 17 17 16 16 16 15 15 15 14 13 14 14 14 14 14 14 14 15 15 15 15 15 16 16 16 17 17 17 17 17 17 17 17 17 17 17
18 18 18 18 18 17 17 17 16 16 16 16 15 15 14 13 13 13 13 13 14 14 14 14 14 14 14 15 15 15 16 16 17 17 17 17 17 17 17 17 17 17 17
18 18 18 18 18 17 17 17 16 16 16 16 15 15 14 13 13 13 13 13 13 13 13 13 13 13 14 14 14 15 15 16 17 17 17 17 17 16 16 16 17 16 16
19 19 19 18 18 17 17 16 16 16 16 15 15 15 14 14 13 12 12 12 12 13 13 13 13 13 13 14 14 14 15 15 15 16 17 17 16 16 16 16 16 16 16
19 19 19 18 18 17 17 16 16 16 15 15 15 14 14 13 13 12 12 12 12 12 12 12 13 13 13 13 13 14 14 14 14 15 16 16 16 16 16 16 16 16 16
20 20 19 18 18 17 17 16 16 15 15 15 15 14 14 13 13 13 12 12 12 12 12 12 12 12 12 12 12 13 13 14 14 14 14 15 16 16 16 16 16 16 16
21 20 20 19 18 17 17 16 15 15 15 15 15 14 14 13 14 13 13 12 12 12 12 12 12 11 11 12 12 12 12 13 13 14 14 14 15 15 16 16 16 16 15
Wind_Speed
18 17 17 15 13 12 12 12 12 11 12 11 11 12 12 12 12 11 11 10 10 10 10 10 10 10 10 10 10 9 9 8 8 9 10 11 11 11 11 12 13 14 16
20 19 18 16 14 13 12 11 12 11 11 12 12 12 12 11 11 10 9 9 9 9 9 9 9 9 9 9 8 8 7 6 6 7 9 11 11 11 10 11 13 14 15
20 19 18 17 15 14 13 13 12 12 12 12 12 12 12 11 10 9 8 8 8 8 8 8 8 8 8 8 7 6 5 4 3 3 4 9 12 11 10 12 16 15 15
20 18 18 17 16 15 14 14 14 13 13 13 13 12 12 11 9 8 7 7 6 6 6 6 6 7 7 6 6 5 3 2 2 2 2 8 12 12 12 15 16 15 14
19 20 18 17 16 15 14 14 14 14 13 13 12 11 10 9 8 7 6 5 5 5 5 5 5 5 5 5 4 3 2 4 6 6 5 14 14 13 13 14 15 14 14
20 19 18 16 15 14 14 13 13 12 12 11 10 9 8 7 6 5 4 4 4 4 4 4 4 4 4 3 2 1 3 6 8 4 9 15 14 13 13 13 14 13 13
20 19 18 16 14 13 12 12 11 10 10 9 8 7 5 5 4 3 3 2 2 3 3 3 3 3 3 2 1 1 4 7 9 3 10 15 15 14 13 12 13 13 12
20 19 18 16 14 12 11 10 9 8 7 6 5 4 3 2 2 2 2 2 2 3 3 3 3 3 4 4 3 3 5 8 8 3 11 16 17 15 13 12 12 12 12
19 17 16 16 14 12 11 10 8 7 6 4 3 3 2 3 3 4 4 4 3 3 3 4 4 4 5 5 5 5 6 8 11 6 7 15 18 16 14 12 12 12 12
15 14 14 15 14 13 12 10 9 7 6 5 4 4 4 6 7 8 7 7 5 5 5 5 5 5 6 7 8 8 8 9 11 10 5 15 20 17 15 13 12 12 12
13 11 12 12 11 11 12 11 10 8 6 5 5 5 5 5 5 6 6 6 6 6 6 6 7 7 7 10 11 11 9 10 12 10 7 20 21 18 16 15 14 13 13
12 12 10 8 6 7 8 9 6 6 5 2 2 1 3 4 4 3 4 6 6 7 8 9 9 9 9 10 12 14 10 12 13 9 11 25 22 20 18 16 15 14 14
12 10 10 9 7 7 5 5 4 3 3 1 4 4 5 5 5 4 0 3 4 6 7 5 7 8 8 8 5 9 11 11 10 7 14 24 22 21 19 17 17 16 16
13 11 10 10 8 7 6 4 3 3 3 4 6 6 6 4 4 4 3 3 3 4 4 3 3 6 7 6 4 6 8 9 10 6 11 22 22 21 20 18 18 18 18
13 12 12 9 8 6 5 4 5 4 4 5 6 8 8 4 3 3 2 3 4 4 3 2 3 3 3 4 5 6 6 8 11 10 7 18 20 20 20 20 19 19 19
12 12 10 9 8 6 4 3 2 4 4 6 7 8 9 8 5 4 2 2 3 3 1 2 3 2 2 3 4 5 6 8 10 11 8 14 18 20 21 21 21 21 21
12 11 9 9 7 6 4 2 4 5 7 6 6 8 11 11 9 7 4 2 3 3 3 3 3 3 4 4 4 5 5 8 9 10 10 10 13 19 22 23 23 23 23
12 10 7 9 8 7 5 3 5 6 5 4 5 9 11 9 9 7 4 3 6 6 3 3 3 2 3 3 3 4 4 4 7 9 10 12 13 14 20 24 24 24 24
10 9 8 8 7 6 5 2 3 3 2 2 5 8 8 8 8 8 5 3 6 4 3 5 3 4 4 4 5 5 5 6 6 8 7 11 13 13 13 20 26 26 26
10 9 8 7 6 4 3 2 1 2 1 2 5 7 6 7 8 8 6 6 6 4 4 5 5 4 4 4 7 7 5 6 6 6 7 8 11 14 15 15 17 23 27
10 9 8 7 6 3 2 0 1 2 2 2 2 7 4 5 7 7 4 5 5 4 5 6 5 6 5 4 4 5 6 8 8 7 6 5 5 8 10 12 13 14 17
10 9 8 7 7 5 3 2 1 1 2 2 1 3 3 4 5 6 6 5 6 6 5 4 4 4 5 5 4 5 5 5 4 4 3 4 5 2 3 8 10 13 14
11 10 9 9 7 6 4 2 2 1 2 1 1 2 4 3 3 4 4 4 5 6 5 5 5 5 4 6 5 3 3 4 6 4 3 1 2 2 3 4 7 11 15
11 11 9 8 7 6 4 3 3 3 3 2 1 1 2 2 3 2 2 4 4 5 6 6 7 6 6 5 6 4 3 3 3 4 5 3 2 3 4 5 4 6 10
11 10 10 9 8 6 5 4 3 3 3 3 4 3 2 3 4 4 1 1 3 5 4 5 6 6 5 5 5 6 6 5 4 5 6 5 4 3 4 5 4 4 6
9 8 9 9 8 6 5 4 3 3 2 3 4 5 4 4 3 3 3 2 2 4 4 5 5 6 5 6 5 5 6 5 5 4 5 6 5 4 4 3 4 3 5
Wind_Direction
112 113 107 100 97 100 116 132 139 137 131 125 121 117 113 110 108 104 100 97 93 87 81 75 73 70 68 66 65 64 63 63 65 69 74 77 81 90 101 107 109 106 111
113 114 107 101 95 93 103 123 131 133 131 127 123 120 117 115 113 111 107 103 98 92 85 79 76 73 72 72 70 68 67 68 72 83 94 93 90 94 104 107 108 114 115
114 118 112 103 98 93 95 104 116 122 124 124 120 118 118 118 117 116 113 109 104 98 90 85 82 79 77 76 75 71 66 59 62 90 126 111 102 96 103 112 117 120 118
121 124 114 108 102 97 94 97 104 109 114 117 119 118 118 119 120 119 116 113 110 105 99 93 89 87 85 82 78 69 45 13 349 307 195 126 110 103 110 120 123 124 124
113 111 113 112 107 103 100 99 102 106 110 113 116 117 119 121 122 122 122 121 118 115 111 106 101 97 95 90 83 63 359 334 318 300 106 102 102 113 118 124 127 129 129
116 116 116 114 111 108 105 103 103 105 108 110 113 116 120 123 127 130 133 131 131 131 128 125 122 118 113 108 99 45 324 321 310 303 116 115 114 120 123 128 132 133 133
119 119 122 119 115 112 109 108 108 108 109 109 110 114 120 127 135 142 152 153 153 157 160 158 152 150 151 154 165 267 300 307 290 287 120 119 124 127 128 132 136 139 139
120 121 125 125 124 122 121 118 115 113 113 114 117 123 132 148 177 194 198 204 204 193 188 187 192 185 186 195 210 247 281 296 307 334 119 126 135 134 135 138 143 146 146
121 127 136 138 137 137 136 133 132 132 132 136 148 165 191 216 224 226 225 225 220 211 209 211 217 214 209 210 218 235 264 284 293 283 140 135 142 141 144 147 151 156 156
119 131 139 143 147 153 150 149 150 152 157 172 187 202 226 240 234 230 231 220 222 223 224 226 231 231 223 219 222 227 243 269 268 261 157 145 149 148 152 157 161 164 165
111 112 122 133 147 156 153 151 161 167 178 199 204 217 240 261 261 224 221 204 211 222 232 235 236 237 231 226 224 224 229 246 252 246 158 152 156 157 161 166 171 173 175
111 106 106 112 115 119 125 136 150 152 152 186 118 208 264 289 300 278 188 193 211 228 238 237 238 238 235 236 224 218 227 237 255 251 155 157 162 162 166 174 178 181 183
116 107 109 99 78 75 84 97 79 78 95 91 70 25 358 332 316 315 299 206 226 242 245 245 232 242 242 245 231 206 229 252 255 249 164 163 166 167 170 178 185 187 190
112 107 98 91 81 65 59 64 68 51 41 41 46 30 15 346 336 347 342 325 287 266 247 262 249 255 258 256 248 229 235 255 274 277 173 170 173 174 176 183 190 193 195
112 99 93 94 90 79 60 33 62 58 30 55 45 41 18 353 355 358 332 310 290 276 248 237 242 263 271 270 260 249 239 253 267 276 199 181 184 184 185 189 195 199 200
112 110 110 106 101 97 89 67 59 70 59 48 50 41 23 8 7 350 318 298 290 283 282 271 267 259 249 251 257 263 257 254 255 260 248 199 197 198 196 196 200 204 206
116 114 118 117 111 103 89 61 68 54 48 43 46 50 36 15 1 345 322 314 353 339 325 287 281 269 258 250 245 250 244 245 250 250 251 233 213 212 209 206 205 207 209
121 127 137 121 115 103 86 47 62 49 42 36 44 57 39 3 356 341 330 1 356 332 310 289 263 285 301 312 297 280 265 246 246 244 242 240 233 226 217 213 211 210 211
125 122 111 114 123 118 113 94 92 103 64 30 63 64 31 356 3 351 334 351 336 326 325 322 15 8 341 333 306 272 260 248 244 246 233 235 236 233 225 216 215 215 215
131 127 127 132 124 136 137 131 127 87 43 40 81 78 34 1 16 354 321 8 353 336 343 348 349 332 301 279 285 294 290 273 256 245 240 236 230 229 230 231 216 219 220
143 144 153 153 144 162 157 129 25 44 357 1 89 93 41 16 9 326 342 351 334 343 345 332 340 324 306 283 283 289 278 260 246 234 231 236 240 234 228 229 224 217 219
157 160 164 169 170 183 165 165 189 250 285 273 64 126 100 42 355 341 25 340 351 342 316 321 328 315 312 321 314 308 304 296 333 270 214 220 233 239 251 246 234 228 228
170 176 185 182 176 185 183 225 266 220 273 297 45 65 69 26 339 341 341 341 346 326 339 345 331 329 320 315 299 296 308 332 338 319 322 249 208 228 245 256 252 236 229
183 186 187 177 179 181 192 230 271 291 307 331 344 73 62 304 279 307 334 349 348 326 324 330 19 342 329 318 318 313 296 306 300 315 323 320 250 230 232 244 255 253 240
194 190 182 173 175 181 195 212 238 287 326 357 8 352 322 264 227 221 201 353 331 305 328 353 334 329 319 313 322 327 324 310 267 264 292 305 303 269 235 233 234 241 248
196 186 171 163 169 176 188 216 219 261 301 317 313 302 291 282 242 188 177 122 308 308 342 334 316 306 309 318 317 308 307 305 304 301 297 302 299 298 286 264 248 235 242
Height
1520 1523 1526 1529 1531 1534 1536 1538 1541 1543 1544 1546 1547 1548 1549 1550 1551 1551 1552 1553 1553 1554 1555 1556 1556 1557 1557 1558 1558 1559 1559 1560 1560 1560 1560 1561 1561 1562 1563 1564 1565 1566 1568
1520 1524 1527 1530 1532 1535 1537 1540 1542 1544 1545 1547 1548 1549 1550 1551 1552 1553 1553 1554 1555 1555 1556 1557 1558 1558 1559 1559 1560 1560 1561 1561 1562 1562 1562 1563 1564 1564 1566 1567 1568 1569 1571
1521 1525 1528 1531 1534 1536 1539 1541 1543 1545 1546 1548 1549 1550 1551 1552 1553 1554 1555 1555 1556 1557 1558 1558 1559 1559 1560 1561 1561 1562 1563 1563 1564 1564 1564 1565 1566 1567 1568 1569 1570 1572 1573
1523 1526 1529 1532 1535 1538 1540 1542 1544 1546 1548 1549 1550 1551 1552 1553 1554 1555 1556 1556 1557 1558 1559 1560 1560 1561 1561 1562 1563 1564 1564 1565 1566 1566 1566 1568 1569 1570 1570 1571 1573 1574 1576
1525 1527 1531 1533 1536 1539 1541 1544 1546 1547 1549 1550 1551 1552 1553 1554 1555 1556 1557 1557 1558 1559 1560 1560 1561 1562 1563 1563 1564 1565 1566 1567 1567 1568 1569 1570 1570 1571 1572 1573 1575 1576 1578
1526 1529 1532 1535 1538 1540 1542 1545 1546 1548 1550 1551 1552 1553 1554 1555 1556 1556 1557 1558 1559 1559 1560 1561 1562 1563 1563 1564 1565 1566 1567 1568 1569 1570 1570 1571 1572 1572 1573 1575 1576 1578 1579
1527 1530 1534 1536 1539 1541 1543 1545 1547 1549 1550 1551 1552 1553 1554 1555 1556 1557 1557 1558 1559 1560 1561 1561 1562 1563 1564 1565 1566 1567 1568 1569 1570 1571 1572 1572 1573 1574 1574 1576 1577 1579 1581
1528 1531 1535 1537 1540 1542 1544 1546 1548 1549 1550 1552 1553 1554 1554 1555 1556 1557 1557 1558 1559 1560 1561 1561 1562 1563 1564 1565 1566 1567 1568 1569 1570 1573 1573 1573 1574 1574 1575 1577 1578 1580 1582
1530 1532 1535 1538 1541 1543 1545 1547 1548 1549 1551 1552 1553 1553 1554 1555 1556 1557 1557 1558 1559 1559 1560 1561 1562 1563 1563 1564 1566 1567 1568 1569 1570 1572 1573 1573 1574 1575 1576 1577 1579 1581 1583
1531 1534 1536 1539 1542 1543 1545 1547 1548 1549 1550 1551 1552 1553 1554 1555 1555 1556 1556 1557 1557 1558 1559 1560 1561 1562 1562 1563 1565 1566 1567 1569 1570 1572 1573 1573 1574 1575 1576 1577 1579 1581 1583
1533 1536 1539 1541 1543 1545 1546 1547 1548 1549 1550 1551 1552 1552 1553 1554 1555 1555 1555 1556 1556 1557 1558 1559 1559 1560 1561 1562 1563 1565 1566 1568 1569 1571 1572 1572 1574 1575 1576 1577 1579 1581 1583
1534 1537 1539 1542 1544 1546 1548 1548 1549 1550 1551 1551 1552 1552 1553 1553 1554 1554 1554 1554 1555 1555 1556 1557 1558 1558 1559 1560 1562 1563 1564 1566 1567 1570 1570 1571 1572 1574 1575 1577 1578 1580 1582
1534 1537 1540 1541 1543 1546 1548 1549 1550 1551 1551 1552 1551 1551 1552 1552 1553 1553 1553 1553 1553 1553 1554 1554 1555 1556 1557 1558 1560 1561 1562 1564 1566 1568 1568 1568 1570 1572 1574 1575 1577 1579 1581
1533 1536 1539 1540 1543 1545 1547 1549 1550 1551 1551 1551 1551 1550 1550 1550 1550 1550 1551 1551 1551 1552 1552 1552 1553 1554 1555 1556 1557 1558 1560 1561 1564 1565 1565 1565 1567 1569 1571 1573 1575 1577 1579
1534 1536 1538 1540 1542 1544 1547 1548 1550 1550 1551 1551 1550 1549 1549 1549 1548 1548 1548 1548 1549 1549 1549 1550 1550 1551 1552 1553 1554 1556 1557 1558 1559 1562 1562 1562 1564 1566 1568 1570 1572 1574 1576
1533 1536 1538 1540 1542 1544 1546 1548 1550 1550 1550 1550 1549 1548 1547 1547 1546 1545 1546 1546 1546 1547 1547 1548 1548 1549 1550 1550 1551 1552 1553 1554 1555 1557 1558 1559 1560 1562 1564 1566 1568 1571 1573
1533 1536 1538 1540 1542 1545 1547 1548 1550 1550 1550 1549 1549 1548 1546 1545 1544 1544 1544 1544 1544 1545 1545 1546 1546 1547 1548 1548 1549 1549 1550 1550 1551 1552 1554 1555 1557 1558 1560 1561 1564 1566 1569
1533 1536 1539 1541 1543 1545 1547 1548 1549 1549 1549 1549 1548 1546 1544 1543 1542 1542 1542 1542 1542 1543 1543 1544 1545 1545 1545 1546 1546 1546 1547 1547 1547 1548 1549 1550 1552 1553 1555 1556 1559 1561 1564
1533 1536 1538 1541 1543 1545 1546 1548 1548 1548 1548 1548 1547 1544 1543 1542 1541 1540 1540 1541 1541 1541 1542 1543 1543 1542 1542 1542 1543 1543 1544 1544 1544 1544 1545 1546 1547 1549 1550 1552 1553 1556 1558
1534 1536 1539 1541 1543 1545 1546 1547 1548 1548 1547 1547 1546 1543 1542 1541 1540 1539 1539 1539 1539 1539 1540 1540 1540 1540 1540 1540 1541 1541 1540 1540 1540 1540 1541 1542 1543 1544 1546 1547 1549 1550 1552
1534 1536 1539 1541 1543 1544 1545 1546 1547 1547 1546 1546 1545 1542 1541 1540 1539 1538 1538 1537 1538 1538 1538 1538 1538 1538 1538 1539 1539 1538 1537 1536 1536 1536 1537 1538 1539 1540 1541 1542 1544 1545 1546
1534 1536 1538 1540 1542 1543 1544 1545 1545 1545 1545 1545 1544 1542 1540 1539 1538 1538 1536 1536 1536 1536 1536 1536 1536 1536 1536 1537 1537 1536 1535 1535 1533 1533 1533 1534 1535 1536 1537 1538 1539 1540 1541
1533 1535 1537 1539 1541 1542 1543 1543 1544 1544 1544 1544 1543 1542 1540 1538 1537 1536 1535 1534 1533 1534 1534 1534 1534 1534 1534 1535 1535 1536 1535 1533 1532 1532 1532 1532 1532 1533 1533 1534 1534 1535 1536
1532 1534 1536 1537 1539 1540 1541 1541 1542 1542 1542 1542 1541 1540 1538 1537 1536 1535 1534 1533 1532 1532 1532 1532 1532 1532 1532 1532 1533 1534 1534 1534 1533 1531 1530 1530 1530 1530 1530 1531 1531 1531 1531
1531 1533 1534 1535 1537 1538 1538 1539 1539 1540 1540 1539 1538 1538 1537 1536 1535 1534 1533 1532 1531 1531 1531 1530 1529 1529 1529 1530 1530 1530 1531 1531 1531 1531 1529 1529 1528 1528 1528 1527 1527 1527 1527
1529 1531 1533 1533 1535 1535 1536 1537 1537 1537 1536 1536 1536 1535 1535 1535 1534 1533 1532 1531 1530 1530 1529 1528 1527 1527 1527 1527 1527 1527 1528 1528 1529 1528 1527 1526 1526 1525 1525 1524 1524 1523 1523